Погода в Цыпнаволоке

Россия / Мурманская область     69°43′58″N   33°05′47″E
темп.,
°C
ветер,
м/с
пор.,
м/с
влажн.,
%
обл.,
%
осадки,
мм/ч
давл.,
гПа
погр.,
м
11 мая, вт
вт1100:00+4з45712 0.0 101274
03:00+3з337312 0.0 101351
06:00+3з227442 0.0 101552
09:00+4ююв227692 0.0 101581
12:00+5ю3479100 0.0 101599
15:00+5вюв5682100 0.0 1013193
18:00+4юв5695100 2.1 1012212
21:00+4в3397100 3.9 101277
12 мая, ср
ср1200:00+4с3497100 0.6 1013142
03:00+4ссз5795100 0.8 1016220
06:00+4сз5693100 0.1 1020234
09:00+4сз4490100 0.2 1021197
12:00+3св2292100 0.1 1023191
15:00+4в3390100 0.1 1024192
18:00+4юв5788100 0.0 1023190
21:00+4вюв7992100 0.0 1020169
13 мая, чт
чт1300:00+4ююв4694100 0.4 101882
03:00+5ю5698100 5.6 101672
06:00+5ю4499100 2.3 101550
09:00+5сз3399100 3.8 101516
12:00+4сз6899100 1.6 1015167
15:00+4сз6897100 3.0 1017192
18:00+4с6898100 1.1 1018259
21:00+3с7998100 2.0 1019430
14 мая, пт
пт1400:00+3св8997100 0.2 1020490
03:00+3св8994100 0.4 1020638
06:00+3всв8994100 0.2 1020691
09:00+2всв81098100 0.4 1020659
12:00+2в81199100 0.4 1021578
15:00+2в91199100 0.9 1021624
18:00+1в91299100 0.8 1021599
21:00+1всв91198100 1.5 1021605
15 мая, сб
сб1500:00+1всв91097100 0.8 1021642
03:00+1всв9992100 1.4 1021709
06:00+1всв91088100 0.4 1021779
09:00+1в8979100 0.8 10211070
12:00+2в9972100 0.1 10221128
15:00+2в91071100 0.1 10221126
18:00+2в91072100 0.0 10211129
21:00+2в101072100 0.1 10211121